Overview Statistics Trail Chart Weather Telemetry Raw packets
 

This is the latest recevied weather packets stored in our database for station/object W5DNT. If no packets are shown the sender has not sent any weather packets the latest 10 day(s).

<< 5 6 7 8 9 10 11 >>
Time Temp. Humidity Pressure Rain* Wind** Luminosity Snow
1788492636 27.78° C 71% 1010.8 hPa 0 mm - - -
1788491736 28.33° C 71% 1010.7 hPa 0 mm - - -
1788490832 28.33° C 71% 1010.6 hPa 0 mm - - -
1788489931 28.33° C 70% 1010.3 hPa 0 mm - - -
1788489030 28.89° C 69% 1010.1 hPa 0 mm - - -
1788488133 28.89° C 69% 1010 hPa 0 mm - - -
1788487240 28.89° C 69% 1009.9 hPa 0 mm - - -
1788486329 29.44° C 71% 1009.6 hPa 0 mm - - -
1788485427 30° C 71% 1009.3 hPa 0 mm - - -
1788484528 30.56° C 69% 1009.1 hPa 0 mm - - -
1788483627 30.56° C 66% 1009 hPa 0 mm - - -
1788482727 31.11° C 64% 1008.8 hPa 0 mm - - -
1788481828 31.67° C 63% 1008.8 hPa 0 mm - - -
1788480924 32.22° C 63% 1008.8 hPa 0 mm - - -
1788480024 32.78° C 61% 1008.7 hPa 0 mm - - -
1788479124 33.33° C 59% 1008.7 hPa 0 mm - - -
1788478224 33.89° C 58% 1008.4 hPa 0 mm - - -
1788477323 34.44° C 57% 1008.4 hPa 0 mm - - -
1788476429 34.44° C 56% 1008.4 hPa 0 mm - - -
1788475521 35° C 53% 1008.1 hPa 0 mm - - -
1788474624 35° C 52% 1008.1 hPa 0 mm - - -
1788473726 36.11° C 49% 1008 hPa 0 mm - - -
1788472830 35.56° C 49% 1008.1 hPa 0 mm - - -
1788471917 35.56° C 50% 1008.1 hPa 0 mm - - -
1788471015 36.11° C 49% 1008.3 hPa 0 mm - - -

* Rain latest hour (hover to see other rain measurements)
** Current wind speed in m/s (hover to see current wind gust speed)